Location: Butte
(46.0040°N, 112.5340°W)
Time: 12:49:32
(UTC-07:00)

Daily predictions for brighter satellites

Satellite Brightness Start Highest point End
(mag) Time Altitude Azimuth Time Altitude Azimuth Time Altitude Azimuth
Cosmos 1844 Rocket 3.2 17:42:30 10° NNW 17:48:10 69° WSW 17:53:45 10° SSE
CZ-3A R/B 3.1 17:48:29 10° WNW 17:54:33 49° NNE 17:59:11 10° E
Cosmos 1125 Rocket 3.5 17:49:21 10° NNW 17:54:34 67° ENE 17:59:43 10° SSE
COSMO-SKYMED 1 3.6 17:52:14 10° NE 17:55:54 26° E 17:59:33 10° SSE
USA 116 3.2 17:52:54 10° NNE 17:56:05 61° ESE 17:59:07 10° S
CZ-4C R/B 4.3 17:53:24 10° NW 17:57:18 17° N 18:01:32 10° NE
SL-16 R/B 4.4 17:53:55 10° W 17:57:53 19° NW 18:01:52 10° N
YAOGAN 1 2.5 17:53:41 10° SSE 17:58:00 80° ENE 18:02:22 10° N
CZ-2C R/B 2.6 17:53:47 10° S 17:58:45 78° WSW 18:03:35 10° NNW
Lacrosse 5 rocket 1.1 17:59:17 10° NW 18:03:03 78° NE 18:06:59 10° SE
Thor Agena Rocket 3.6 17:58:51 10° NNE 18:04:06 65° ESE 18:09:14 10° S
Cosmos 841 Rocket 3.7 17:59:12 10° SSW 18:04:29 81° WNW 18:09:47 10° NNE
CENTAUR R/B 2.9 17:58:45 10° SW 18:04:55 67° NW 18:11:58 10° NE
Resurs 01 Rocket 3.4 18:05:18 10° E 18:07:13 13° ENE 18:09:07 10° NNE
BREEZE M DEB (TANK) 1.4 18:03:45 10° WNW 18:07:22 84° NNE 18:09:30 10° ESE
SPOT 3 Rocket 3.7 18:03:39 10° SSE 18:08:48 81° WSW 18:14:01 10° NNW
Cosmos 2360 Rocket 3.8 18:04:28 10° WSW 18:09:25 31° NW 18:14:24 10° N
MSX 3.9 18:05:57 10° SSE 18:11:41 89° W 18:17:27 10° NNW
COSMOS 2441 4.3 18:06:58 10° SSE 18:11:49 80° ENE 18:16:41 10° N
Cosmos 332 Rocket 4.0 18:08:10 10° SSW 18:13:00 76° WNW 18:17:54 10° NNE
Timation 1 Rocket 4.5 18:07:49 10° NNW 18:13:44 53° ENE 18:19:35 10° SE
Cosmos 1980 3.8 18:08:10 10° S 18:13:45 61° ESE 18:19:21 10° NNE
Cosmos 2228 Rocket 4.0 18:09:28 10° NNW 18:13:48 54° W 18:18:07 10° S
Cosmos 2151 3.1 18:10:07 10° S 18:14:10 50° E 18:18:15 10° NNE
Cosmos 1328 3.7 18:15:53 10° S 18:19:48 77° E 18:23:46 10° NNE
ATLAS 5 CENTAUR R/B 4.1 18:17:19 10° NNW 18:20:19 14° NNE 18:23:24 10° NE
Cosmos 44 3.4 18:17:10 10° SSW 18:22:23 69° ESE 18:27:14 11° NE
CZ-4 R/B 3.1 18:19:42 10° SSW 18:23:17 36° W 18:26:56 10° NNW
Cosmos 2279 Rocket 4.0 18:17:10 10° N 18:23:21 62° ENE 18:29:29 10° SSE
ALOS 3.5 18:23:37 10° ESE 18:27:05 21° ENE 18:30:33 10° NNE
Cosmos 1743 Rocket 4.4 18:23:44 10° SSW 18:28:06 53° WNW 18:32:31 10° N
Cosmos 1626 3.3 18:26:59 10° SE 18:30:01 24° E 18:31:37 18° NE
IDEFIX/ARIANE 42P 4.1 18:26:48 10° SSW 18:31:42 41° W 18:36:39 10° NNW
NOAA 12 4.3 18:27:19 10° SE 18:32:19 48° ENE 18:37:23 10° N
Cosmos 2333 Rocket 2.3 18:27:26 10° SSW 18:33:06 83° WNW 18:38:48 10° NNE
Cosmos 1151 Rocket 3.4 18:29:32 10° NNW 18:33:48 67° W 18:38:04 10° S
Cosmos 2219 Rocket 2.6 18:28:29 10° SW 18:34:06 66° WNW 18:39:43 10° NNE
Aureole 2 Rocket 2.8 18:31:00 10° S 18:34:41 57° ESE 18:38:20 12° NNE
SJ-6B 3.4 18:32:11 10° SE 18:35:56 36° ENE 18:39:45 10° N
Cosmos 1703 3.7 18:35:24 10° SSE 18:39:02 39° E 18:42:25 12° NNE
Cosmos 1455 2.9 18:36:16 10° N 18:39:41 31° ENE 18:43:06 10° SE
Cosmos 371 Rocket 3.9 18:37:10 10° SW 18:41:53 55° WNW 18:46:38 10° NNE
Cosmos 2278 Rocket 2.9 18:37:11 10° NNW 18:42:44 57° WSW 18:48:16 10° S
Cosmos 1726 3.2 18:39:19 10° NNW 18:42:59 49° W 18:46:37 10° S
SKYMED 2 3.5 18:39:49 10° NNE 18:44:11 82° ESE 18:48:32 10° SSW
Nadezhda 4 Rocket 4.3 18:40:13 10° SSE 18:46:02 42° E 18:51:55 10° NNE
Cosmos 1805 Rocket 3.7 18:42:27 10° S 18:46:47 52° E 18:51:08 10° NNE
Lacrosse 4 Rocket 2.2 18:44:20 10° NNW 18:47:56 29° NE 18:48:34 28° ENE
Cosmos 2180 Rocket 4.4 18:42:01 10° N 18:48:13 78° E 18:54:26 10° SSE
FREGAT/IRIS 2.8 18:49:56 10° SSE 18:52:51 45° ENE 18:55:49 10° N
Abrixas 2.4 18:55:33 10° WSW 18:58:26 60° SSE 18:58:45 55° ESE
Cosmos 2084 4.4 18:56:10 10° WSW 18:59:44 36° NW 19:02:06 18° NNE
SL-19 R/B 4.4 18:55:13 10° SE 19:00:53 54° ENE 19:06:19 10° N
Cosmos 540 Rocket 4.0 18:55:58 10° SW 19:01:04 60° WNW 19:06:13 10° NNE
Cosmos 1340 Rocket 2.8 18:59:31 10° SSW 19:03:27 77° W 19:07:23 10° N
Cosmos 44 Rocket 4.5 18:59:05 10° WSW 19:03:54 41° NW 19:07:57 14° NNE
Sich 1 3.2 18:59:42 10° S 19:04:01 52° E 19:06:47 21° NNE
Cosmos 1092 Rocket 4.3 19:00:31 10° SSE 19:06:26 44° E 19:12:24 10° NNE
Cosmos 2058 3.6 19:04:34 10° SSW 19:08:35 53° WNW 19:12:37 10° N
Cosmos 1461 2.8 19:05:02 10° SSW 19:09:08 63° ESE 19:10:07 46° ENE
Cosmos 2237 Rocket 2.8 19:03:56 10° SW 19:09:28 57° WNW 19:15:04 10° NNE
Cosmos 1633 Rocket 3.1 19:07:17 10° S 19:11:34 55° E 19:13:19 33° NNE
Cosmos 2369 Rocket 3.3 19:07:05 10° N 19:11:17 25° NE 19:11:17 25° NE
ATLAS 3B R/B 4.3 19:09:55 10° NW 19:14:44 19° N 19:17:08 16° NNE
USA 215 3.3 19:08:59 11° SE 19:15:16 81° SW 19:21:51 10° NW
SL-16 R/B 2.1 19:10:43 10° SSW 19:16:21 77° ESE 19:19:54 24° NNE
Cosmos 1869 3.8 19:12:49 10° N 19:15:53 43° NNE 19:15:53 43° NNE
Cosmos 304 Rocket 3.9 19:15:34 10° SSW 19:20:22 75° WNW 19:23:39 20° NNE
Meteor 1-28 Rocket 4.1 19:19:48 10° N 19:23:24 47° WNW 19:26:59 10° SSW
Orbus 7S? 4.2 19:20:42 10° NW 19:24:43 76° NE 19:29:24 26° ESE
Cosmos 2297 4.4 19:19:57 10° NW 19:25:30 55° WSW 19:31:03 10° S
Lacrosse 5 3.3 19:24:35 10° NW 19:28:40 24° N 19:29:18 23° NNE
Cosmos 1356 Rocket 3.4 19:26:11 10° SSW 19:30:10 73° WNW 19:31:41 36° N
COSMO-SKYMED 1 4.2 19:28:12 10° N 19:32:06 33° WNW 19:35:59 10° SW
Cosmos 1707 Rocket 4.4 19:28:49 10° NNW 19:33:00 49° W 19:37:11 10° SSW
Lacrosse 5 rocket 4.1 19:39:33 10° W 19:41:50 15° SW 19:44:12 10° SSW
Resurs 01 Rocket 1.6 19:41:22 38° S 19:43:03 84° WSW 19:47:32 10° NNW
Spot 2 Rocket 3.4 19:39:42 10° SSE 19:44:45 86° WSW 19:49:50 10° NNW
Aureole 1 Rocket 3.8 19:39:22 10° SSW 19:44:51 77° ESE 19:48:31 30° NNE
Cosmos 1666 Rocket 4.2 19:41:45 10° SSW 19:46:00 53° WNW 19:48:43 21° N
Resurs 1-3 4.3 19:49:09 44° NNW 19:49:09 44° NNW 19:52:11 10° NNW
CZ-4C R/B 3.9 19:42:49 10° NNW 19:48:11 26° NNE 19:48:11 26° NNE
FENGYUN 3A 3.8 19:46:05 10° S 19:51:26 74° WSW 19:56:50 10° NNW
CENTAUR R/B 4.3 19:51:38 10° WNW 19:57:01 25° NNW 20:00:37 18° NNE
USA 229 DEB 3.6 19:52:07 10° SSW 19:58:55 72° SE 19:59:44 65° E
USA 229 3.6 19:52:12 10° SSW 19:59:01 71° SE 19:59:47 66° E
Iridium 4 Rocket 3.7 19:55:52 10° SSW 19:59:35 52° SW 19:59:35 52° SW
Cosmos 1627 Rocket 4.4 19:57:52 10° S 20:03:14 66° SSE 20:03:14 66° SSE
ALOS 3.1 19:59:39 10° S 20:04:11 50° W 20:08:45 10° NNW
Cosmos 1626 4.3 20:02:11 10° SW 20:05:19 25° WNW 20:06:22 22° NW
ATLAS 5 CENTAUR R/B 3.6 20:01:38 10° NNW 20:04:58 27° N 20:04:58 27° N
Cosmos 1603 4.5 20:15:17 10° SSW 20:18:57 43° SSW 20:18:57 43° SSW
Cosmos 1943 Rocket 4.1 20:19:24 10° NNW 20:20:55 18° N 20:20:55 18° N
Lacrosse 4 Rocket 3.6 20:23:02 10° NW 20:24:58 22° WNW 20:24:58 22° WNW
Cosmos 2369 Rocket 3.9 20:50:38 10° NNW 20:53:07 27° NW 20:53:07 27° NW
SL-16 R/B 4.2 20:56:51 10° W 21:01:08 22° NW 21:01:50 21° NW
ATLAS 3B R/B 4.4 21:01:25 10° NNW 21:04:24 23° NNW 21:04:24 23° NNW
